Regional Weather Roundup
Issued by NWS

Home | Current Version | Previous Version | Text Only | Print | Product List | Glossary On
Versions: 1 2 3 4 5 6 7 8 9 10 11 12 13 14 15 16 17 18 19 20 21 22 23 24 25 26 27 28 29 30 31 32 33 34 35 36 37 38 39 40 41 42 43 44 45 46 47 48 49 50
000
ASUS44 KMEG 230710
RWRTN
TENNESSEE HOURLY STATE WEATHER ROUNDUP
NATIONAL WEATHER SERVICE MEMPHIS TN
200 AM CDT TUE SEP 23 2014

TNZ002-004-019-021-049-052-054-088>092-230800-
WEST TENNESSEE

CITY           SKY/WX    TMP DP  RH WIND       PRES   REMARKS
MEMPHIS INTL   CLEAR     61  47  59 NE7       30.21S
NWS MEMPHIS      N/A     58 N/A N/A MISG        N/A
JACKSON        CLEAR     51  45  79 CALM      30.23R
DYERSBURG      CLEAR     54  39  58 NE3       30.25S
UNION CITY     CLEAR     48  46  93 CALM      30.24S
PARIS          CLEAR     46  43  87 CALM      30.25R
HUNTINGDON     CLEAR     50  45  83 NE3       30.25R
LEXINGTON      CLEAR     48  45  87 NE3       30.21S
SAVANNAH       CLEAR     46  46 100 CALM      30.21S
$$

TNZ008-025-027-028-033-062-065-066-230800-
NORTH MIDDLE TENNESSEE

CITY           SKY/WX    TMP DP  RH WIND       PRES   REMARKS
NASHVILLE      CLEAR     54  47  77 N3        30.24R
DICKSON        CLEAR     54  45  71 NE5       30.23R
CLARKSVILLE    CLEAR     52  45  77 NE3       30.25S
LEBANON        CLEAR     45  42  89 CALM      30.22S
SMYRNA         CLEAR     52  45  77 CALM      30.24R
MURFREESBORO   CLEAR     52  45  77 N3        30.22S
COOKEVILLE     CLEAR     43  43 100 CALM      30.22R
LIVINGSTON     CLEAR     49  46  89 NE6       30.24
GALLATIN       CLEAR     52  46  79 NE6       30.24S
CROSSVILLE     CLEAR     50  45  83 NE5       30.23S
$$

TNZ061-075-076-078-094-096-097-230800-
SOUTH MIDDLE TENNESSEE

CITY           SKY/WX    TMP DP  RH WIND       PRES   REMARKS
LEWISBURG      CLEAR     45  43  93 CALM      30.22R
FAYETTEVILLE   CLEAR     52  43  71 N7        30.19S
TULLAHOMA      CLEAR     48  45  87 N6        30.22R
WINCHESTER     CLEAR     52  46  82 N6        30.20S
MCMINNVILLE    CLEAR     48  48 100 CALM      30.21S
COLUMBIA       CLEAR     48  48 100 CALM      30.20S
SHELBYVILLE    CLEAR     48  46  93 CALM      30.22S
$$

TNZ017-018-042-046-047-230800-
NORTHEAST TENNESSEE

CITY           SKY/WX    TMP DP  RH WIND       PRES   REMARKS
TRI CITIES     CLEAR     50  46  86 CALM      30.25R
ELIZABETHTON   SUNNY     43  43 100 N3        30.25S
$$

TNZ012-013-036-069-073-074-230800-
CENTRAL EAST TENNESSEE

CITY           SKY/WX    TMP DP  RH WIND       PRES   REMARKS
KNOXVILLE      CLEAR     54  50  86 NE8       30.21S
OAK RIDGE      CLEAR     53  49  86 CALM      30.24S
GATLINBURG     SUNNY     48  46  93 CALM      30.22S
MORRISTOWN     SUNNY     52  48  87 NE3       30.24S
$$

TNZ083-085-099-230800-
SOUTHEAST TENNESSEE

CITY           SKY/WX    TMP DP  RH WIND       PRES   REMARKS
CHATTANOOGA    CLEAR     60  48  64 NE7       30.19S
$$

SKY/WX REPORTED AS FAIR MEANS FEW OR NO CLOUDS BELOW
12 THOUSAND FEET.



USA.gov is the U.S. government's official web portal to all federal, state and local government web resources and services.